| time (UTC) | temp F | wind direction | speed knots | gust knots | rain 1hr in | rain 24hr in | rain mn in | humidity % | barometer mb |
| 20260504045038 | 36 | 92 | 0.0 | 0.0 | 0.00 | 1.14 | 0.00 | 81 | 1021.5 |
| 20260504044025 | 36 | 92 | 0.0 | 0.0 | 0.00 | 1.14 | 0.00 | 83 | 1021.5 |
| 20260504043013 | 35 | 92 | 0.0 | 0.0 | 0.00 | 1.14 | 0.00 | 84 | 1021.3 |
| 20260504042022 | 35 | 92 | 0.0 | 0.0 | 0.00 | 1.14 | 0.00 | 83 | 1021.2 |
| 20260504041025 | 35 | 92 | 0.0 | 0.0 | 0.00 | 1.14 | 0.00 | 83 | 1021.2 |
| 20260504040031 | 35 | 92 | 0.0 | 0.0 | 0.00 | 1.14 | 0.00 | 84 | 1021.0 |
| 20260504035015 | 35 | 92 | 0.0 | 0.9 | 0.00 | 1.14 | 0.00 | 83 | 1020.8 |
| 20260504034022 | 35 | 92 | 0.9 | 1.7 | 0.00 | 1.14 | 0.00 | 84 | 1020.8 |
| 20260504033031 | 35 | 92 | 0.0 | 0.0 | 0.00 | 1.14 | 0.00 | 86 | 1020.9 |
| 20260504032017 | 35 | 92 | 0.0 | 0.0 | 0.00 | 1.14 | 0.00 | 88 | 1020.8 |
| 20260504031026 | 34 | 92 | 0.0 | 0.0 | 0.00 | 1.14 | 0.00 | 88 | 1020.8 |
| 20260504030032 | 33 | 92 | 0.0 | 0.0 | 0.00 | 1.14 | 0.00 | 88 | 1020.8 |
| 20260504025017 | 33 | 92 | 0.0 | 2.6 | 0.00 | 1.14 | 0.00 | 89 | 1020.8 |
| 20260504024022 | 33 | 44 | 0.9 | 2.6 | 0.00 | 1.14 | 0.00 | 89 | 1020.8 |
| 20260504023042 | 32 | 40 | 0.9 | 3.5 | 0.00 | 1.14 | 0.00 | 88 | 1020.8 |
| 20260504022013 | 32 | 88 | 1.7 | 3.5 | 0.00 | 1.14 | 0.00 | 88 | 1020.8 |
| 20260504021023 | 32 | 40 | 0.9 | 3.5 | 0.00 | 1.14 | 0.00 | 88 | 1020.9 |
| 20260504020031 | 33 | 95 | 0.9 | 1.7 | 0.00 | 1.14 | 0.00 | 88 | 1020.8 |
| 20260504015028 | 32 | 95 | 0.0 | 1.7 | 0.00 | 1.14 | 0.00 | 87 | 1021.0 |
| 20260504014017 | 33 | 95 | 0.9 | 2.6 | 0.00 | 1.14 | 0.00 | 87 | 1021.0 |
| 20260504013045 | 33 | 91 | 0.0 | 0.0 | 0.00 | 1.14 | 0.00 | 87 | 1021.0 |
| 20260504012013 | 32 | 91 | 0.0 | 0.0 | 0.00 | 1.14 | 0.00 | 88 | 1020.8 |
| 20260504011023 | 32 | 91 | 0.0 | 0.0 | 0.00 | 1.14 | 0.00 | 86 | 1020.8 |
| 20260504010031 | 33 | 91 | 0.0 | 0.0 | 0.00 | 1.14 | 0.00 | 86 | 1020.7 |
| 20260504005017 | 32 | 91 | 0.0 | 0.0 | 0.00 | 1.14 | 0.00 | 86 | 1020.8 |
| 20260504004025 | 32 | 91 | 0.0 | 0.0 | 0.00 | 1.14 | 0.00 | 86 | 1020.7 |
| 20260504003018 | 32 | 91 | 0.0 | 0.0 | 0.00 | 1.14 | 0.00 | 85 | 1020.8 |
| 20260504002043 | 33 | 91 | 0.0 | 0.0 | 0.00 | 1.14 | 0.00 | 84 | 1020.9 |
| 20260504001024 | 33 | 91 | 0.0 | 0.0 | 0.00 | 1.14 | 0.00 | 84 | 1020.9 |
| 20260504000053 | 32 | 91 | 0.0 | 0.0 | 0.00 | 1.14 | 0.00 | 85 | 1020.9 |
| 20260503235022 | 33 | 91 | 0.0 | 2.6 | 0.00 | 1.14 | 0.00 | 85 | 1021.0 |
| 20260503234012 | 33 | 91 | 0.0 | 0.0 | 0.00 | 1.14 | 0.00 | 83 | 1021.0 |
| 20260503233038 | 33 | 91 | 0.0 | 1.7 | 0.00 | 1.14 | 0.00 | 83 | 1021.1 |
| 20260503232038 | 33 | 91 | 0.0 | 0.9 | 0.00 | 1.14 | 0.00 | 84 | 1021.1 |
| 20260503231024 | 34 | 91 | 1.7 | 1.7 | 0.00 | 1.14 | 0.00 | 81 | 1021.2 |
| 20260503230032 | 34 | 91 | 1.7 | 2.6 | 0.00 | 1.14 | 0.00 | 81 | 1021.3 |
| 20260503225015 | 34 | 92 | 0.0 | 1.7 | 0.00 | 1.14 | 0.00 | 81 | 1021.2 |
| 20260503224022 | 34 | 92 | 0.9 | 1.7 | 0.00 | 1.14 | 0.00 | 82 | 1021.3 |
| 20260503223026 | 35 | 92 | 0.0 | 0.9 | 0.00 | 1.14 | 0.00 | 80 | 1021.3 |
| 20260503222015 | 34 | 92 | 0.9 | 2.6 | 0.00 | 1.14 | 0.00 | 81 | 1021.4 |
| 20260503221022 | 35 | 109 | 0.0 | 0.9 | 0.00 | 1.14 | 0.00 | 79 | 1021.3 |
| 20260503220031 | 35 | 109 | 0.0 | 1.7 | 0.00 | 1.14 | 0.00 | 81 | 1021.2 |
| 20260503215017 | 35 | 109 | 0.0 | 0.0 | 0.00 | 1.14 | 0.00 | 81 | 1021.3 |
| 20260503214026 | 36 | 109 | 0.0 | 2.6 | 0.00 | 1.14 | 0.00 | 77 | 1021.2 |
| 20260503213014 | 36 | 120 | 1.7 | 5.2 | 0.00 | 1.14 | 0.00 | 79 | 1021.2 |
| 20260503212019 | 36 | 130 | 0.0 | 1.7 | 0.00 | 1.14 | 0.00 | 78 | 1021.1 |
| 20260503211026 | 37 | 131 | 0.9 | 1.7 | 0.00 | 1.14 | 0.00 | 77 | 1021.2 |
| 20260503210035 | 36 | 130 | 0.9 | 2.6 | 0.00 | 1.14 | 0.00 | 79 | 1021.1 |
| 20260503205048 | 37 | 130 | 0.9 | 2.6 | 0.00 | 1.14 | 0.23 | 77 | 1021.1 |
| 20260503204014 | 37 | 130 | 0.9 | 3.5 | 0.00 | 1.14 | 0.23 | 77 | 1021.1 |
| 20260503203017 | 38 | 13 | 1.7 | 3.5 | 0.00 | 1.14 | 0.23 | 75 | 1021.2 |
| 20260503202020 | 37 | 59 | 0.9 | 2.6 | 0.00 | 1.14 | 0.23 | 81 | 1021.1 |
| 20260503201023 | 36 | 122 | 1.7 | 2.6 | 0.00 | 1.14 | 0.23 | 84 | 1021.2 |
| 20260503200052 | 36 | 122 | 0.0 | 2.6 | 0.00 | 1.14 | 0.23 | 83 | 1021.3 |
| 20260503195013 | 37 | 61 | 0.9 | 2.6 | 0.00 | 1.14 | 0.23 | 84 | 1021.3 |
| 20260503194018 | 36 | 118 | 0.0 | 1.7 | 0.00 | 1.14 | 0.23 | 85 | 1021.3 |
| 20260503193027 | 36 | 118 | 0.9 | 2.6 | 0.00 | 1.14 | 0.23 | 86 | 1021.2 |
| 20260503192037 | 35 | 134 | 0.9 | 2.6 | 0.00 | 1.14 | 0.23 | 87 | 1021.1 |
| 20260503191024 | 36 | 113 | 0.9 | 2.6 | 0.00 | 1.14 | 0.23 | 86 | 1021.1 |
| 20260503190032 | 36 | 123 | 1.7 | 2.6 | 0.00 | 1.14 | 0.23 | 84 | 1021.0 |
| 20260503185018 | 36 | 93 | 0.9 | 2.6 | 0.00 | 1.14 | 0.23 | 85 | 1021.0 |
| 20260503184040 | 37 | 92 | 0.0 | 1.7 | 0.00 | 1.14 | 0.23 | 82 | 1020.8 |
| 20260503183048 | 38 | 92 | 0.9 | 1.7 | 0.00 | 1.14 | 0.23 | 80 | 1020.7 |
| 20260503182017 | 39 | 92 | 0.9 | 1.7 | 0.00 | 1.14 | 0.23 | 76 | 1020.5 |
| 20260503181025 | 39 | 92 | 0.9 | 1.7 | 0.00 | 1.14 | 0.23 | 76 | 1020.5 |
| 20260503180053 | 39 | 92 | 0.9 | 1.7 | 0.00 | 1.14 | 0.23 | 80 | 1020.4 |
| 20260503175015 | 38 | 92 | 0.0 | 1.7 | 0.00 | 1.14 | 0.23 | 82 | 1020.2 |
| 20260503174019 | 40 | 92 | 0.9 | 1.7 | 0.00 | 1.14 | 0.23 | 78 | 1020.1 |
| 20260503173028 | 41 | 92 | 1.7 | 2.6 | 0.00 | 1.14 | 0.23 | 77 | 1019.9 |
| 20260503172016 | 42 | 92 | 0.0 | 2.6 | 0.00 | 1.14 | 0.23 | 78 | 1019.8 |
| 20260503171024 | 42 | 116 | 0.9 | 3.5 | 0.04 | 1.14 | 0.23 | 79 | 1019.8 |
| 20260503131022 | 37 | 128 | 1.7 | 8.7 | 0.51 | 1.10 | 0.22 | 89 | 1019.7 |
| 20260503081025 | 52 | 342 | 6.1 | 14.8 | 0.00 | 0.00 | 0.00 | 55 | 1017.2 |
| 20260503072019 | 51 | 335 | 6.1 | 8.7 | 0.00 | 0.00 | 0.00 | 55 | 1017.0 |
| 20260503071047 | 49 | 269 | 2.6 | 7.0 | 0.00 | 0.00 | 0.00 | 57 | 1016.9 |
| 20260503055038 | 46 | 104 | 0.0 | 0.0 | 0.00 | 0.00 | 0.00 | 67 | 1017.7 |
| 20260503054021 | 46 | 104 | 0.0 | 0.9 | 0.00 | 0.00 | 0.00 | 68 | 1017.7 |
| 20260503053047 | 45 | 104 | 0.9 | 1.7 | 0.00 | 0.00 | 0.00 | 68 | 1017.6 |
| 20260503052036 | 44 | 104 | 0.0 | 0.0 | 0.00 | 0.00 | 0.00 | 71 | 1017.7 |